{"data":{"norad_id":51867,"epoch":"2026-05-24T22:30:16.110144Z","epoch_age_seconds":81160,"freshness":"FRESH","line1":"1 51867U 22022R   26144.93768646  .00000146  00000+0  27249-4 0  9999","line2":"2 51867  53.2149  26.8306 0001433  94.7694 265.3462 15.08839998234623","mean_motion":15.08839998,"eccentricity":0.0001433,"inclination_deg":53.2149,"raan_deg":26.8306,"arg_perigee_deg":94.7694,"mean_anomaly_deg":265.3462,"bstar":2.7249e-5,"rev_number":23462,"period_min":95.43755480427,"perigee_km":538.75206281669,"apogee_km":540.73472733792,"semimajor_km":6917.8803950773,"source":"CELESTRAK","updated_at":"2026-05-25T13:38:16.962627Z"}}